This is the latest recevied weather packets stored in our database for station/object YM2KA-13. If no packets are shown the sender has not sent any weather packets the latest 10 day(s).
| Time | Temp. | Humidity | Pressure | Rain* | Wind** | Luminosity | Snow |
|---|---|---|---|---|---|---|---|
| 1777400590 | 14.44° C | 55% | 1010.5 hPa | 0 mm | - | - | - |
| 1777400073 | 14.44° C | 54% | 1010.4 hPa | 0 mm | - | - | - |
| 1777399687 | 14.44° C | 54% | 1010.5 hPa | 0 mm | - | - | - |
| 1777399473 | 15° C | 53% | 1010.4 hPa | 0 mm | - | - | - |
| 1777398864 | 15° C | 53% | 1010.3 hPa | 0 mm | - | - | - |
| 1777398794 | 15° C | 53% | 1010.2 hPa | 0 mm | - | - | - |
| 1777398265 | 15° C | 52% | 1010.1 hPa | 0 mm | - | - | - |
| 1777397889 | 15° C | 52% | 1010 hPa | 0 mm | - | - | - |
| 1777397665 | 15° C | 52% | 1010 hPa | 0 mm | - | - | - |
| 1777397067 | 15° C | 52% | 1009.9 hPa | 0 mm | - | - | - |
| 1777396986 | 15° C | 52% | 1009.9 hPa | 0 mm | - | - | - |
| 1777396468 | 15° C | 52% | 1009.9 hPa | 0 mm | - | - | - |
| 1777396092 | 15.56° C | 52% | 1009.8 hPa | 0 mm | - | - | - |
| 1777395868 | 15.56° C | 52% | 1009.8 hPa | 0 mm | - | - | - |
| 1777395270 | 15.56° C | 51% | 1009.7 hPa | 0 mm | - | - | - |
| 1777395189 | 15.56° C | 51% | 1009.7 hPa | 0 mm | - | - | - |
| 1777394671 | 16.11° C | 49% | 1009.7 hPa | 0 mm | - | - | - |
| 1777394286 | 16.67° C | 47% | 1009.7 hPa | 0 mm | - | - | - |
| 1777394072 | 16.67° C | 46% | 1009.6 hPa | 0 mm | - | - | - |
| 1777393473 | 17.78° C | 44% | 1009.5 hPa | 0 mm | - | - | - |
| 1777393392 | 18.33° C | 42% | 1009.6 hPa | 0 mm | - | - | - |
| 1777392865 | 19.44° C | 36% | 1009.4 hPa | 0 mm | - | - | - |
| 1777392489 | 19.44° C | 34% | 1009.4 hPa | 0 mm | - | - | - |
| 1777392265 | 19.44° C | 34% | 1009.4 hPa | 0 mm | - | - | - |
| 1777391667 | 19.44° C | 31% | 1009.2 hPa | 0 mm | - | - | - |
* Rain latest hour (hover to see other rain measurements)
** Current wind speed in m/s (hover to see current wind gust speed)